User: anonymous   Login
Location: Fazenda Monte Alegre
(4.8500°S, 38.0333°W)
Time: 10:50:41
(UTC+00:00)
Language:

GP-B - Orbit

View from above orbital plane
View from above orbital plane
View from above satellite
View from above satellite

Ground track
Ground track

The orbit data is extracted from the following two-line orbital elements,

1 28230U 04014A   20337.85570318  .00000233  00000-0  29457-4 0  9995
2 28230  89.8165  94.7824 0002336  75.8835 284.2647 14.78767985353172
Epoch (UTC): 02 December 2020 20:32:12
Eccentricity: 0.0002336
inclination: 89.8165°
perigee height: 631 km
apogee height: 635 km
right ascension of ascending node: 94.7824°
argument of perigee: 75.8835°
revolutions per day: 14.78767985
mean anomaly at epoch: 284.2647°
orbit number at epoch: 35317

The dashed part of the orbit path shows where the satellite is in the earth's shadow,  

DLR